Location: Unspecified
(48.5670°N, 0.0000°E)
Time: 15:59:39
(UTC+00:00)

Altair - Pass Details

Date: 26 August 2019
Orbit: 1501 x 1683 km, 47.2° (Epoch: 14 September)

Event Time Altitude Azimuth Distance (km) Brightness Sun altitude
Exits shadow 03:40:41 16° 247° (WSW) 3,353 8.6 -13.8°
Maximum altitude 03:48:51 76° 165° (SSE) 1,627 7.6 -12.7°
Drops below altitude 10° 03:58:16 10° 82° (E) 3,721 10.7 -11.4°
Sets 04:01:16 0° 81° (E) 4,685 11.5 -11.0°
